#timestamp,LO_Frequency,Hit,StdDev 
1635224415.9,286047002.8,N
1635224435.7,286047001.3,N
1635224455.5,286047002.3,N
1635224475.4,286047001.4,N
1635224495.2,286047002.0,N
1635224515.0,286047004.3,N
1635224515.9,286047004.3,N
1635224535.8,286047001.9,N
1635224555.6,286047000.2,N
1635224575.4,286047002.5,N
1635224595.3,286047001.9,N
1635224615.1,286047003.8,N
1635224616.0,286047003.8,N
1635224635.8,286047001.3,N
1635224655.7,286047004.0,N
1635224675.5,286047004.0,N
1635224695.3,286047003.9,N
1635224715.1,286047003.6,N
1635224735.9,286047005.5,Y
1635224755.7,286047004.4,P
1635224775.6,286047001.6,N
1635224795.4,286047000.3,N
1635224815.2,286047000.4,N
1635224835.0,286047002.6,N
1635224836.0,286047002.6,N
1635224855.8,286047000.2,N
1635224875.6,286047000.2,N
1635224895.4,286047001.6,N
1635224915.3,286047004.4,Y
1635224935.1,286047002.7,P
1635224955.8,286047000.0,N
1635224975.7,286047001.1,N
1635224995.5,286046998.6,N
1635225015.3,286046998.6,N
1635225035.2,286047000.0,N
1635225055.0,286047002.8,N
1635225055.9,286047002.8,N
1635225075.7,286047000.2,N
1635225095.6,286047002.3,N
1635225115.4,286047002.6,N
1635225135.2,286047000.2,N
1635225155.1,286046999.8,N
1635225156.0,286046999.8,N
1635225175.8,286046999.9,N
1635225195.6,286047002.5,N
1635225215.5,286047002.1,N
1635225235.3,286047002.4,N
1635225255.1,286047001.3,N
1635225275.9,286047001.4,N
1635225295.7,286047001.6,N
1635225315.5,286047003.7,N
1635225335.4,286047003.2,N
1635225355.2,286047004.4,Y
1635225375.0,286047004.0,P
1635225376.0,286047004.0,N
1635225395.8,286047004.1,P
1635225415.6,286047005.6,Y
1635225435.5,286047001.2,P
1635225455.3,286047001.0,N
1635225475.1,286046998.7,N
1635225495.9,286046998.9,N
1635225515.7,286046998.8,N
1635225535.5,286047000.7,N
1635225555.4,286047002.4,N
1635225575.2,286047000.6,N
1635225595.0,286047001.2,N
1635225595.9,286047001.2,N
1635225615.8,286046998.6,N
1635225635.6,286046998.3,N
1635225655.4,286046998.7,N
1635225675.3,286046998.8,N
1635225695.1,286047000.7,N
1635225696.0,286047000.7,N
1635225715.8,286047000.6,N
1635225735.7,286046998.6,N
1635225755.5,286046999.1,N
1635225775.3,286046999.5,N
1635225795.2,286046998.6,N
1635225815.9,286047000.5,N
1635225835.7,286047002.6,N
1635225855.6,286047004.3,Y
1635225875.4,286047001.9,P
1635225895.2,286046999.7,N
1635225915.1,286047000.3,N
1635225916.0,286047000.3,N
1635225935.8,286046999.8,N
1635225955.6,286047002.3,Y
1635225975.5,286047000.2,P
1635225995.3,286047000.5,P
1635226015.1,286046999.8,N
1635226035.9,286047002.7,Y
1635226055.7,286047001.0,P
1635226075.5,286046999.9,N
1635226095.4,286047001.2,N
1635226115.2,286047000.6,N
1635226135.0,286047000.9,N
1635226135.9,286047000.9,N
1635226155.8,286047002.8,Y
1635226175.6,286047000.7,P
1635226195.4,286047000.1,P
1635226215.3,286047000.5,N
1635226235.1,286047000.4,N
1635226255.8,286047000.3,N
1635226275.7,286047000.1,N
1635226295.5,286047002.1,Y
1635226315.3,286046999.7,P
1635226335.2,286047000.6,N
1635226355.0,286046998.2,P
1635226355.9,286046998.2,N
1635226375.7,286046997.1,N
1635226395.6,286046998.5,N
1635226415.4,286046998.8,N
1635226435.2,286046998.1,N
1635226455.1,286046999.3,N
1635226456.0,286046999.3,N
1635226475.8,286046998.2,N
1635226495.6,286046998.3,N
1635226515.5,286047000.7,N
1635226535.3,286046998.4,N
1635226555.1,286047011.9,Y
1635226575.9,286047000.1,P
1635226595.7,286047000.9,N
1635226615.5,286046999.5,N
1635226635.4,286046997.0,Y
1635226655.2,286046998.4,P
1635226675.0,286046999.4,N
1635226676.0,286046999.4,N
1635226695.8,286046997.0,Y
1635226715.6,286046998.3,P
1635226735.5,286046998.4,P
1635226755.3,286046998.3,P
1635226775.1,286046997.4,Y
1635226795.9,286046996.6,P
1635226815.7,286046998.6,N
1635226835.5,286046997.2,P
1635226855.4,286046996.9,Y
1635226875.2,286047000.6,P
1635226895.0,286047002.1,N
1635226895.9,286047002.1,N
1635226915.8,286047000.3,N
1635226935.6,286047000.9,N
1635226955.4,286046999.4,N
1635226975.3,286046999.4,N
1635226995.1,286046998.9,N
1635226996.0,286046998.9,N
1635227015.8,286046997.7,N
1635227035.7,286046997.4,N
1635227055.5,286046995.7,N
1635227075.3,286046996.2,N
1635227095.2,286046995.5,N
1635227115.9,286046995.9,N
1635227135.7,286046994.0,N
1635227155.6,286046994.1,N
1635227175.4,286046996.4,N
1635227195.2,286046993.4,N
1635227215.1,286046994.3,N
1635227216.0,286046994.3,N
1635227235.8,286046991.8,Y
1635227255.6,286046993.5,P
1635227275.5,286046993.4,P
1635227295.3,286046995.6,N
1635227315.1,286046997.3,N
1635227335.9,286046998.0,N
1635227355.7,286046998.0,N
1635227375.5,286046995.8,N
1635227395.4,286046993.5,Y
1635227415.2,286046999.5,P
1635227435.0,286046996.5,N
1635227435.9,286046996.5,N
1635227455.8,286046996.7,N
1635227475.6,286046994.9,Y
1635227495.4,286046999.1,P
1635227515.3,286047000.8,N
1635227535.1,286047000.4,N
1635227555.8,286047000.9,N
1635227575.7,286046998.5,N
1635227595.5,286047001.0,N
1635227615.3,286046998.3,N
1635227635.2,286046998.7,N
1635227655.9,286046998.2,N
1635227675.7,286047000.7,N
1635227695.6,286046998.1,N
1635227715.4,286047001.0,N
1635227735.2,286046998.9,N
1635227755.1,286046997.4,N
1635227756.0,286046997.4,N
1635227775.8,286046996.5,N
1635227795.6,286046996.7,N
1635227815.5,286046996.8,N
1635227835.3,286046997.9,N
1635227855.1,286046997.1,N
1635227875.9,286046996.7,N
1635227895.7,286046995.1,Y
1635227915.5,286046995.4,P
1635227935.4,286046996.7,N
1635227955.2,286046999.5,N
1635227975.0,286046996.7,N
1635227975.9,286046996.7,N
1635227995.8,286046997.3,N
